Lanai City, HI

7:47 PM HST on May 22, 2018 (GMT -1000)
Lanai City

Weather History for PHNY - November, 2013

Change the Weather History Date:

Thursday, November 28, 2013

  Actual Average Record
Temperature  
Mean Temperature 70 °F -  
Max Temperature 79 °F 77 °F 83 °F (1951)
Min Temperature 61 °F 63 °F 59 °F (2011)
Cooling Degree Days 5    
Growing Degree Days 20 (Base 50)    
Moisture  
Dew Point 63 °F    
Average Humidity 80    
Maximum Humidity 100    
Minimum Humidity 52    
Precipitation  
Precipitation 0.01 in - - ()
Sea Level Pressure  
Sea Level Pressure 30.00 in    
Wind  
Wind Speed 6 mph (ESE)    
Max Wind Speed 17 mph    
Max Gust Speed 17 mph    
Visibility 10 miles    
Events Rain    
Averages and records for this station are not official NWS values.
T = Trace of Precipitation, MM = Missing Value Source: NWS Daily Summary

Daily Weather History Graph

Daily Weather History Graph

Search for Another Location

Airport or City:

Astronomy

Nov. 28, 2013 Rise Set
Actual Time 6:46 AM HST 5:45 PM HST
Civil Twilight 6:22 AM HST 6:09 PM HST
Nautical Twilight 5:55 AM HST 6:36 PM HST
Astronomical Twilight 5:28 AM HST 7:03 PM HST
Moon 2:31 AM HST (11/28) 2:34 PM HST (11/28)
Length of Visible Light 11h 46m
Length of Day
10h 59m
Waning Crescent, 21% of the Moon is Illuminated
Nov 28
Waning Crescent
Dec 2
New
Dec 9
First Quarter
Dec 16
Full
Dec 25
Last Quarter

Hourly Weather History & Observations

Time (HST) Temp. Dew Point Humidity Pressure Visibility Wind Dir Wind Speed Gust Speed Precip Events Conditions
12:56 AM 63.9 °F 61.9 °F 93% 30.01 in 10.0 mi East 4.6 mph - N/A   Clear
1:56 AM 64.9 °F 64.9 °F 100% 30.00 in 10.0 mi Calm Calm - N/A   Clear
2:56 AM 63.0 °F 63.0 °F 100% 29.99 in 10.0 mi ENE 3.5 mph - N/A   Clear
3:56 AM 63.9 °F 63.9 °F 100% 29.98 in 10.0 mi North 6.9 mph - N/A   Partly Cloudy
4:56 AM 61.9 °F 61.9 °F 100% 29.98 in 10.0 mi East 3.5 mph - N/A   Clear
5:56 AM 63.0 °F 63.0 °F 100% 29.99 in 10.0 mi East 4.6 mph - N/A   Partly Cloudy
6:56 AM 63.0 °F 63.0 °F 100% 30.00 in 10.0 mi East 8.1 mph - N/A   Clear
7:56 AM 68.9 °F 66.9 °F 93% 30.02 in 10.0 mi East 4.6 mph - N/A   Clear
8:56 AM 74.8 °F 63.9 °F 69% 30.03 in 10.0 mi ESE 9.2 mph - N/A   Clear
9:30 AM 75.2 °F 64.4 °F 69% 30.08 in 10.0 mi ESE 11.5 mph - N/A   Mostly Cloudy
9:56 AM 77.0 °F 64.9 °F 66% 30.02 in 10.0 mi SSE 17.3 mph - N/A   Mostly Cloudy
10:56 AM 77.0 °F 64.4 °F 65% 30.06 in 10.0 mi SE 13.8 mph - N/A   Mostly Cloudy
11:56 AM 79.9 °F 61.9 °F 54% 29.99 in 10.0 mi SSE 15.0 mph - N/A   Mostly Cloudy
12:56 PM 79.9 °F 61.0 °F 52% 29.95 in 10.0 mi SE 12.7 mph - N/A   Partly Cloudy
1:56 PM 79.9 °F 61.0 °F 52% 29.93 in 10.0 mi SSE 9.2 mph 17.3 mph N/A   Clear
2:56 PM 77.9 °F 61.0 °F 56% 29.93 in 10.0 mi South 11.5 mph - N/A   Clear
3:56 PM 77.9 °F 61.0 °F 56% 29.93 in 10.0 mi SSE 8.1 mph - N/A   Clear
4:56 PM 74.8 °F 61.0 °F 62% 29.96 in 10.0 mi South 5.8 mph - N/A   Overcast
5:56 PM 72.9 °F 61.0 °F 66% 29.97 in 10.0 mi Calm Calm - N/A   Mostly Cloudy
6:56 PM 70.9 °F 61.9 °F 73% 29.99 in 10.0 mi Calm Calm - N/A   Scattered Clouds
7:56 PM 71.6 °F 64.4 °F 78% 30.05 in 10.0 mi Calm Calm - N/A   Overcast
8:14 PM 69.8 °F 66.2 °F 88% 30.05 in 10.0 mi NNE 5.8 mph - N/A   Scattered Clouds
8:56 PM 68.9 °F 65.8 °F 90% 30.00 in 10.0 mi NE 4.6 mph - N/A   Clear
9:56 PM 68.0 °F 66.9 °F 96% 30.00 in 10.0 mi East 4.6 mph - N/A   Mostly Cloudy
10:56 PM 63.9 °F 61.9 °F 93% 30.01 in 10.0 mi ESE 5.8 mph - N/A   Partly Cloudy
11:48 PM 66.2 °F 64.4 °F 94% 30.05 in 10.0 mi East 4.6 mph - 0.01 in Rain Light Rain
11:56 PM 64.9 °F 64.9 °F 100% 29.99 in 10.0 mi ESE 9.2 mph - 0.01 in Rain Light Rain